Regional Weather Roundup
Issued by NWS

Home | Current Version | Previous Version | Graphics & Text | Print | Product List | Glossary On
Versions: 1 2 3 4 5 6 7 8 9 10 11 12 13 14 15 16 17 18 19 20 21 22 23 24 25 26 27 28 29 30 31 32 33 34 35 36 37 38 39 40 41 42 43 44 45 46 47 48 49 50
000
ASUS43 KOAX 240010
RWRNE

WEATHER ROUNDUP FOR NEBRASKA
NATIONAL WEATHER SERVICE OMAHA NE
700 PM CDT MON OCT 23 2017

NOTES: SATELLITE DATA IS BEING USED TO AUGMENT CLOUD COVER ABOVE
       12000 FEET.
       "FAIR" INDICATES FEW OR NO CLOUDS BELOW 12,000 FEET WITH NO
       SIGNIFICANT WEATHER AND/OR OBSTRUCTIONS TO VISIBILITY.


NEZ001>004-019>022-054>056-240100-
NEBRASKA PANHANDLE

CITY           SKY/WX    TMP DP  RH WIND       PRES   REMARKS
SCOTTSBLUFF    PTCLDY    53  16  23 N21G31    30.42R
6HR MIN TEMP:  53; 6HR MAX TEMP:  60;

ALLIANCE       CLEAR     50  16  25 NW23G31   30.37R
6HR MIN TEMP:  50; 6HR MAX TEMP:  57;

CHADRON        CLEAR     52  13  21 NW20G32   30.38R
6HR MIN TEMP:  52; 6HR MAX TEMP:  60;

GORDON         FAIR      51  17  27 N21       30.34R
6HR MIN TEMP:  50; 6HR MAX TEMP:  60;

KIMBALL        CLEAR     49  19  30 N17G24    30.42R
SIDNEY         CLEAR     50  18  28 N18G31    30.40R
6HR MIN TEMP:  50; 6HR MAX TEMP:  57;

$$

NEZ057>060-069>072-079>082-240100-
SOUTHWEST NEBRASKA

CITY           SKY/WX    TMP DP  RH WIND       PRES   REMARKS
NORTH PLATTE   CLEAR     55  20  25 N23G30    30.29R
6HR MIN TEMP:  55; 6HR MAX TEMP:  62;

IMPERIAL       CLEAR     54  17  23 N21G31    30.34R
6HR MIN TEMP:  54; 6HR MAX TEMP:  62;

LEXINGTON      PTCLDY    56  22  26 NW15      30.25R
MCCOOK         PTCLDY    56  17  21 N18       30.28R
6HR MIN TEMP:  56; 6HR MAX TEMP:  65;

OGALLALA       CLEAR     55  17  22 NW22G31   30.34R
$$

NEZ005>010-023>029-035>040-094-240100-
NORTH CENTRAL NEBRASKA

CITY           SKY/WX    TMP DP  RH WIND       PRES   REMARKS
VALENTINE      PTCLDY    54  23  30 NW22G36   30.25R
6HR MIN TEMP:  54; 6HR MAX TEMP:  62;

AINSWORTH      PTCLDY    51  28  40 NW18G24   30.23R
BROKEN BOW     CLEAR     53  27  36 NW15      30.23R
6HR MIN TEMP:  53; 6HR MAX TEMP:  62; 6HR PCP: TRACE;

O`NEILL        PTCLDY    49  35  59 NW15G21   30.18S
ORD            PTCLDY    52  29  41 N17G33    30.19R
6HR MIN TEMP:  52; 6HR MAX TEMP:  63; 6HR PCP: TRACE;

THEDFORD       PTCLDY    54  22  28 NW21G31   30.28R
$$

NEZ041-046>049-061>064-073>077-083>087-240100-
SOUTH CENTRAL NEBRASKA

CITY           SKY/WX    TMP DP  RH WIND       PRES   REMARKS
GRAND ISLAND   PTCLDY    52  31  44 N17       30.20R
6HR MIN TEMP:  52; 6HR MAX TEMP:  64; 6HR PCP: TRACE;

AURORA         PTCLDY    54  28  36 NW18G30   30.18R
HASTINGS       CLEAR     55  25  31 NW21G31   30.20R
6HR MIN TEMP:  55; 6HR MAX TEMP:  64;

HEBRON         PTCLDY    57  28  33 NW14G21   30.17R
HOLDREGE       CLEAR     54  29  39 N13G20    30.23S
KEARNEY        CLEAR     55  25  31 NW17G25   30.23R
YORK           CLEAR     54  28  37 NW22      30.15R
$$

NEZ011>018-030>034-042>045-240100-
NORTHEAST NEBRASKA

CITY           SKY/WX    TMP DP  RH WIND       PRES   REMARKS
NORFOLK        CLOUDY    52  32  46 NW25      30.11R
6HR MIN TEMP:  52; 6HR MAX TEMP:  62;

ALBION         MOCLDY    51  34  51 NW17G24   30.17R
BLAIR          CLEAR     53  30  41 NW12G17   30.07R
COLUMBUS       CLEAR     53  31  42 NW17G24   30.13R
FREMONT        PTCLDY    53  31  41 NW14G25   30.10R
TEKAMAH        PTCLDY    52  28  39 NW9       30.07R
6HR MIN TEMP:  52; 6HR MAX TEMP:  65; 6HR PCP: TRACE;

WAYNE          MOCLDY    53  29  39 NW21      30.09S
$$

NEZ050>053-065>068-078-088>093-240100-
SOUTHEAST NEBRASKA

CITY           SKY/WX    TMP DP  RH WIND       PRES   REMARKS
LINCOLN        CLEAR     57  29  34 MISG      30.12R
6HR MIN TEMP:  57; 6HR MAX TEMP:  67; 6HR PCP: TRACE;

OMAHA EPPLEY   PTCLDY    54  29  38 NW18      30.06R
6HR MIN TEMP:  54; 6HR MAX TEMP:  66;

BEATRICE       PTCLDY    58  32  37 NW32      30.12R
FALLS CITY     PTCLDY    58  30  34 NW20G32   30.05R
6HR MIN TEMP:  58; 6HR MAX TEMP:  67;

NEBRASKA CITY  PTCLDY    56  34  43 N18G30    30.08R
PLATTSMOUTH    PTCLDY    55  32  42 NW20G29   30.07R
$$

NEZ044-045-051>053-067-240100-
OMAHA AREA

CITY           SKY/WX    TMP DP  RH WIND       PRES   REMARKS
OMAHA EPPLEY   PTCLDY    54  29  38 NW18      30.06R
6HR MIN TEMP:  54; 6HR MAX TEMP:  66;

BLAIR          CLEAR     53  30  41 NW12G17   30.07R
FREMONT        PTCLDY    53  31  41 NW14G25   30.10R
MILLARD        MOCLDY    57  32  38 NW12G24   30.08R
OFFUTT AFB     PTCLDY    54  30  39 NW16G24   30.06R
PLATTSMOUTH    PTCLDY    55  32  42 NW20G29   30.07R
WAHOO          FAIR      55  31  40 NW13G25   30.10R
$$



USA.gov is the U.S. government's official web portal to all federal, state and local government web resources and services.